Wind_Speed
13 15 16 17 18 19 19 19 20 21 22 22 22 22 23 22 21 22 23 23 23 24 24 25 25 25 25 25 25 25 25 25 25 25 25 25 24 24 24 23 24 24 23 23
12 14 15 16 18 19 18 19 20 21 21 21 22 23 23 24 23 24 24 24 25 25 25 26 25 25 26 26 25 25 25 25 25 24 24 24 24 24 23 23 23 23 23 23
12 13 14 15 16 16 17 18 19 19 20 22 23 23 24 23 24 25 24 25 25 25 25 26 25 25 25 25 25 24 23 23 23 23 23 23 23 22 22 21 21 21 21 21
12 13 13 14 15 15 15 16 17 18 20 21 22 22 22 24 25 25 24 24 24 23 23 23 23 23 23 23 23 22 22 21 22 22 22 21 21 21 20 19 19 19 19 18
10 12 12 12 13 14 14 14 16 18 19 20 21 22 23 24 24 24 24 23 23 22 22 22 22 22 22 22 21 21 20 20 20 20 19 19 19 18 17 16 16 16 16 15
10 10 10 10 11 13 14 15 16 16 18 19 20 21 22 22 23 22 21 21 21 21 21 21 21 21 21 20 20 20 19 19 18 17 17 16 15 14 14 14 13 13 13 13
9 9 9 10 10 11 12 13 14 15 16 17 19 20 21 21 21 20 20 20 20 19 19 19 19 19 19 18 17 17 16 16 16 15 14 14 12 11 11 11 10 10 10 9
7 8 8 9 9 10 11 12 13 14 15 17 19 19 20 20 20 20 19 19 18 18 17 17 17 16 16 15 14 14 14 13 13 11 10 10 9 8 8 8 8 7 6 5
5 5 7 7 7 8 9 11 13 14 16 17 18 19 19 18 18 18 18 17 17 16 15 14 13 13 13 12 11 10 10 9 8 7 7 6 5 5 5 4 4 4 4 4
4 4 5 6 7 8 10 12 13 14 16 17 18 17 17 16 16 16 16 15 15 14 13 11 11 11 9 8 7 6 5 4 4 4 3 3 2 2 2 2 2 2 2 4
4 4 5 6 6 8 10 11 13 14 16 16 16 15 15 15 15 15 14 13 12 11 10 9 8 7 6 6 5 4 4 3 2 2 1 0 0 1 2 2 2 3 3 5
5 5 6 6 7 8 10 12 14 15 15 15 15 14 14 14 14 13 12 11 10 9 8 8 7 6 6 5 5 4 4 3 2 2 3 3 4 4 4 4 5 6 6 6
6 7 6 7 8 9 10 12 14 15 15 14 15 14 14 13 13 12 11 10 9 8 8 8 7 7 6 5 5 5 5 4 4 5 6 6 6 6 7 7 7 8 8 7
6 7 7 7 8 9 11 12 14 15 15 15 15 14 13 12 12 12 11 10 10 9 8 8 8 7 7 6 6 6 6 6 7 7 7 7 7 7 8 8 9 9 9 9
7 7 7 7 8 9 11 12 14 15 15 14 14 14 13 12 12 12 11 11 10 10 9 9 8 8 7 7 8 8 9 9 8 8 8 8 8 8 9 9 10 10 10 10
7 7 7 7 8 9 11 12 14 14 14 14 14 14 13 13 13 12 12 12 11 10 10 10 9 10 9 9 10 10 10 10 10 10 10 11 10 10 11 11 11 11 12 12
8 8 7 8 8 9 10 12 13 14 14 14 14 14 13 13 13 13 13 13 12 12 11 11 11 11 11 11 11 11 11 11 11 12 12 12 13 13 13 14 14 15 15 15
8 8 7 7 8 8 10 11 13 13 14 14 14 14 14 14 14 14 13 13 14 13 13 13 13 13 12 12 12 13 13 13 13 14 14 14 15 15 15 16 16 17 17 17
8 7 7 6 7 8 9 11 12 12 13 13 13 13 13 14 14 13 13 13 13 13 13 13 13 14 13 13 14 14 14 14 15 15 16 16 17 17 17 17 18 18 18 18
7 7 6 6 6 7 8 10 11 12 12 12 13 13 13 13 13 13 13 13 13 13 13 13 14 14 14 14 14 15 15 15 16 16 17 18 18 18 18 18 18 18 18 18
6 6 6 6 5 6 7 8 9 10 11 12 12 12 12 13 13 13 13 13 13 13 13 13 14 14 14 14 14 14 15 15 16 17 18 18 19 18 18 18 18 18 18 19
6 6 6 6 5 5 6 6 7 8 9 10 11 11 11 11 12 12 13 13 13 13 13 13 13 14 14 14 14 14 15 15 16 16 17 17 17 17 17 17 17 17 18 18
5 5 5 5 5 5 5 6 6 7 7 8 9 9 10 10 10 11 12 12 13 13 13 13 13 13 13 13 14 14 14 15 15 15 15 16 16 17 17 16 17 17 17 17
5 5 5 5 5 5 5 5 5 5 5 6 6 7 8 8 8 9 9 10 10 11 11 12 12 12 12 12 13 13 13 13 13 14 14 14 15 15 15 15 15 15 15 15
7 6 6 6 6 6 5 4 4 4 4 4 4 4 5 5 6 6 7 7 8 8 9 9 10 10 11 11 11 12 12 12 12 13 13 13 13 13 13 13 13 13 13 13
9 9 8 8 8 7 6 5 5 4 4 4 3 3 2 3 3 3 4 4 5 5 6 6 7 7 8 8 8 9 9 10 10 10 10 10 10 11 11 11 11 11 11 10
12 11 11 11 10 9 9 8 7 7 7 6 6 5 5 3 2 2 1 1 1 2 2 3 3 4 4 5 5 6 6 7 8 8 8 8 9 9 9 9 9 9 8 8
Wind_Direction
248 251 254 255 258 262 266 270 276 281 284 289 294 297 300 301 300 305 304 298 295 295 294 293 291 291 291 290 289 287 285 285 284 283 283 282 282 280 277 275 272 271 272 271
248 253 257 257 259 262 266 272 278 280 282 287 292 295 299 301 301 302 303 300 298 297 295 295 292 291 291 290 289 288 286 284 283 283 283 283 281 279 277 274 272 272 271 271
250 253 257 258 260 265 267 271 279 281 283 285 289 294 300 302 302 302 301 299 299 298 296 296 295 293 291 290 289 288 286 284 284 284 284 284 282 280 277 274 272 271 270 269
256 256 258 261 265 270 273 277 280 283 286 287 293 299 301 302 302 301 302 301 301 301 300 298 296 295 293 291 290 289 288 286 285 284 284 284 282 280 277 274 272 271 269 267
263 261 264 265 271 277 280 287 289 287 289 294 298 299 301 301 303 303 303 302 302 303 303 301 299 296 295 293 291 289 288 288 287 285 286 284 281 277 274 273 272 270 267 264
269 269 275 281 282 285 288 293 298 297 295 299 300 301 304 305 305 306 305 306 308 306 304 303 301 297 295 293 291 289 288 288 287 286 284 283 280 275 274 272 272 269 266 262
273 277 285 291 290 293 298 302 304 305 305 306 306 307 309 309 308 308 308 309 309 307 305 303 302 301 299 296 293 290 287 287 286 285 283 280 277 273 273 272 271 265 262 258
279 280 291 295 297 302 305 310 312 313 313 314 314 314 314 313 312 311 311 310 310 309 308 308 307 306 303 298 295 293 291 288 285 284 282 277 271 269 272 272 263 260 252 244
293 293 298 302 308 312 315 317 318 317 318 319 319 319 319 317 316 315 314 312 310 310 311 311 311 310 309 305 302 300 299 294 291 289 281 274 271 270 270 271 259 255 241 217
325 316 326 324 325 328 327 325 325 326 326 325 326 325 324 322 321 321 320 318 316 315 314 315 316 317 318 318 316 315 318 314 311 310 290 271 264 264 253 243 233 224 201 187
356 342 336 337 342 344 341 339 339 336 335 336 335 333 331 331 331 330 327 327 328 330 331 330 330 334 339 341 343 341 339 341 337 339 337 41 122 133 149 144 134 142 141 146
16 4 357 1 4 1 356 353 349 348 347 346 347 345 342 341 340 341 342 342 344 349 352 354 354 356 358 4 14 22 28 35 45 71 79 88 89 105 116 119 119 121 121 126
23 15 13 15 12 8 2 356 355 356 355 354 356 356 356 356 357 1 3 3 5 10 14 15 16 22 26 30 39 47 56 65 81 94 98 97 97 102 104 108 109 110 112 116
20 17 19 16 10 8 4 1 1 1 2 3 4 6 8 11 15 17 17 17 20 23 28 29 33 38 43 49 57 62 66 77 89 97 98 98 103 104 105 108 108 108 107 107
22 19 16 15 12 10 8 7 8 8 10 11 14 16 18 20 22 24 27 30 33 37 40 42 46 52 58 63 68 73 76 82 90 95 96 99 102 104 106 106 105 105 106 108
16 16 16 19 18 15 13 14 16 17 18 20 22 25 26 28 31 34 37 38 40 43 48 52 57 63 71 77 79 81 82 84 89 94 98 100 100 101 105 106 105 105 106 109
17 19 21 23 20 19 19 21 21 22 24 26 27 29 32 34 36 38 41 45 48 53 57 60 66 71 77 81 83 83 85 87 90 96 100 100 100 102 104 103 104 104 106 109
19 21 24 25 23 22 23 24 24 25 28 30 31 34 36 37 38 41 47 52 56 60 62 66 72 75 77 81 85 88 88 89 93 98 101 103 105 106 105 104 104 105 105 105
13 16 20 23 21 22 25 26 26 29 31 33 34 37 38 40 42 46 50 54 58 62 66 69 73 76 78 83 87 89 92 95 99 100 102 105 106 107 106 106 106 106 106 105
7 10 14 18 20 23 26 28 30 32 34 35 36 38 41 44 45 48 52 57 61 65 69 72 75 77 82 86 91 95 98 100 101 103 105 106 107 107 107 107 108 108 107 106
3 5 9 13 14 17 22 27 29 32 33 34 37 40 43 46 48 50 53 59 63 69 73 77 80 82 86 90 94 98 100 102 103 105 108 109 109 109 109 108 108 108 108 108
353 355 360 7 9 8 14 20 25 29 33 36 40 41 44 48 51 53 57 62 67 71 75 78 80 84 88 91 95 99 103 104 104 106 108 110 110 111 111 111 110 109 109 110
339 347 353 358 359 1 8 16 22 25 28 34 39 42 45 49 53 56 60 64 68 72 76 79 81 84 89 93 99 103 105 106 106 108 109 111 112 114 114 114 113 113 113 113
308 316 326 333 340 344 347 357 3 7 16 26 35 40 43 47 51 55 60 65 70 73 76 79 82 85 89 96 102 105 107 109 111 112 114 115 116 118 117 117 117 117 116 116
283 289 297 304 313 322 326 329 334 336 341 354 10 24 34 41 47 54 59 64 69 74 78 83 86 88 93 99 103 106 109 113 115 117 119 120 121 122 121 122 123 122 121 120
274 278 284 289 294 299 303 303 301 301 301 304 309 321 345 14 33 47 56 62 65 71 80 88 93 97 101 107 110 112 116 121 125 127 128 128 130 131 131 131 130 130 131 131
269 271 275 279 281 284 286 287 285 284 283 280 278 278 280 285 295 316 344 22 46 62 86 104 111 116 118 123 125 127 131 135 137 139 141 142 144 146 147 146 145 146 147 147
Height
5794 5795 5795 5795 5795 5795 5795 5794 5794 5793 5792 5791 5790 5788 5786 5785 5783 5781 5779 5777 5774 5772 5769 5767 5764 5762 5759 5757 5755 5753 5751 5749 5748 5746 5745 5744 5743 5742 5741 5740 5740 5739 5739 5739
5791 5791 5791 5791 5791 5791 5791 5791 5790 5788 5788 5787 5785 5783 5781 5779 5777 5775 5772 5770 5767 5764 5762 5759 5756 5754 5752 5750 5748 5745 5743 5742 5740 5739 5738 5736 5735 5734 5733 5733 5732 5732 5731 5731
5788 5788 5788 5788 5788 5787 5787 5787 5786 5785 5784 5782 5780 5778 5776 5773 5771 5768 5765 5762 5759 5756 5754 5751 5748 5746 5744 5742 5740 5738 5736 5734 5733 5732 5730 5729 5728 5727 5726 5725 5725 5725 5724 5724
5784 5785 5785 5786 5783 5783 5783 5782 5782 5780 5779 5777 5775 5773 5770 5767 5765 5761 5758 5755 5752 5750 5747 5744 5741 5739 5737 5735 5733 5731 5729 5727 5726 5725 5723 5722 5721 5720 5719 5719 5718 5718 5718 5718
5781 5781 5782 5782 5781 5780 5780 5778 5777 5776 5774 5772 5770 5767 5765 5762 5759 5755 5752 5749 5746 5743 5741 5738 5735 5732 5730 5728 5726 5724 5723 5721 5720 5718 5717 5715 5715 5714 5713 5713 5713 5712 5712 5712
5778 5778 5778 5780 5778 5777 5778 5775 5773 5772 5770 5767 5765 5763 5760 5756 5753 5749 5746 5743 5740 5737 5734 5732 5729 5726 5724 5721 5720 5718 5717 5715 5714 5712 5711 5710 5709 5709 5708 5708 5708 5708 5708 5708
5775 5775 5775 5776 5775 5775 5774 5773 5770 5768 5765 5762 5760 5758 5755 5751 5747 5744 5740 5737 5734 5732 5729 5726 5723 5721 5718 5716 5714 5713 5711 5710 5709 5707 5706 5705 5705 5704 5704 5704 5704 5704 5704 5704
5772 5773 5775 5772 5772 5772 5771 5768 5766 5764 5761 5758 5755 5752 5748 5745 5741 5738 5735 5732 5729 5726 5724 5721 5718 5716 5713 5711 5710 5708 5707 5705 5704 5704 5703 5702 5701 5701 5701 5701 5701 5701 5701 5702
5771 5772 5770 5769 5769 5768 5766 5765 5763 5760 5757 5754 5751 5747 5744 5740 5737 5733 5730 5728 5725 5722 5719 5717 5714 5712 5710 5708 5706 5704 5703 5702 5701 5701 5700 5699 5699 5699 5699 5699 5699 5699 5700 5700
5768 5768 5768 5767 5767 5765 5764 5762 5760 5757 5754 5750 5747 5743 5740 5736 5733 5730 5727 5723 5721 5718 5716 5713 5711 5709 5707 5705 5704 5702 5701 5700 5699 5699 5698 5698 5698 5698 5698 5698 5698 5698 5699 5699
5767 5767 5767 5766 5765 5764 5762 5759 5757 5754 5750 5747 5743 5740 5736 5733 5730 5726 5723 5720 5717 5715 5713 5711 5709 5707 5705 5704 5702 5701 5700 5699 5699 5698 5698 5698 5697 5697 5698 5698 5698 5698 5699 5699
5768 5767 5766 5766 5764 5762 5760 5758 5755 5752 5748 5745 5741 5738 5734 5730 5727 5724 5721 5718 5715 5713 5711 5709 5708 5706 5704 5703 5702 5701 5700 5699 5699 5699 5698 5698 5698 5698 5698 5698 5699 5699 5700 5700
5768 5767 5766 5764 5763 5762 5760 5757 5754 5750 5747 5743 5740 5736 5733 5729 5726 5723 5720 5717 5715 5712 5711 5709 5707 5706 5704 5703 5702 5701 5701 5700 5700 5700 5699 5699 5700 5700 5700 5700 5700 5701 5701 5702
5768 5767 5766 5764 5763 5762 5759 5757 5753 5750 5746 5743 5739 5736 5732 5729 5726 5723 5720 5718 5715 5713 5711 5709 5708 5707 5705 5704 5703 5703 5702 5702 5701 5701 5701 5701 5701 5702 5702 5702 5703 5703 5704 5704
5769 5767 5766 5764 5763 5761 5759 5756 5753 5750 5746 5743 5740 5736 5733 5730 5727 5724 5721 5719 5716 5714 5712 5711 5709 5708 5707 5706 5705 5705 5704 5704 5704 5703 5704 5704 5704 5704 5704 5705 5705 5706 5706 5707
5769 5768 5766 5765 5764 5762 5759 5757 5754 5750 5747 5744 5741 5738 5735 5731 5729 5726 5723 5721 5718 5716 5715 5713 5712 5710 5709 5709 5708 5708 5707 5707 5707 5706 5706 5707 5707 5707 5707 5708 5708 5709 5709 5710
5769 5768 5767 5765 5764 5762 5760 5757 5754 5751 5748 5745 5742 5739 5736 5734 5731 5728 5726 5723 5721 5719 5717 5716 5715 5713 5713 5712 5711 5711 5710 5710 5710 5710 5710 5710 5710 5711 5711 5712 5712 5713 5714 5714
5770 5768 5767 5766 5764 5763 5761 5758 5756 5753 5750 5747 5744 5742 5739 5736 5734 5731 5729 5726 5724 5722 5721 5719 5718 5717 5716 5716 5715 5715 5714 5714 5714 5714 5714 5714 5715 5715 5716 5717 5717 5718 5718 5719
5770 5769 5767 5766 5765 5763 5762 5759 5757 5755 5752 5749 5747 5744 5742 5739 5736 5734 5732 5730 5728 5726 5725 5723 5722 5721 5720 5720 5719 5719 5719 5718 5718 5718 5718 5719 5719 5720 5721 5722 5722 5723 5723 5724
5770 5769 5768 5767 5766 5764 5763 5761 5759 5756 5754 5752 5749 5747 5744 5742 5740 5737 5735 5733 5732 5730 5729 5727 5726 5725 5725 5724 5724 5724 5724 5724 5724 5723 5724 5724 5725 5725 5726 5727 5728 5728 5729 5729
5770 5769 5768 5767 5766 5765 5764 5762 5760 5758 5756 5754 5752 5749 5747 5745 5743 5741 5739 5737 5736 5734 5733 5732 5731 5730 5729 5729 5729 5729 5729 5729 5729 5729 5729 5729 5730 5731 5732 5732 5733 5733 5734 5735
5770 5769 5768 5767 5766 5765 5764 5763 5761 5760 5758 5756 5754 5752 5750 5748 5746 5744 5743 5741 5739 5738 5737 5736 5735 5734 5734 5733 5733 5733 5733 5734 5734 5734 5734 5735 5735 5736 5737 5737 5738 5738 5739 5740
5770 5769 5769 5768 5767 5766 5765 5763 5762 5761 5759 5758 5756 5755 5753 5751 5750 5748 5747 5745 5743 5742 5741 5740 5739 5739 5738 5738 5738 5738 5738 5738 5739 5739 5739 5740 5740 5741 5741 5742 5742 5743 5744 5744
5769 5769 5768 5767 5767 5766 5765 5764 5763 5762 5760 5759 5758 5757 5755 5754 5752 5751 5750 5749 5747 5746 5745 5744 5744 5743 5742 5742 5742 5742 5742 5742 5743 5743 5744 5744 5745 5745 5745 5746 5747 5747 5748 5748
5768 5767 5767 5767 5766 5765 5764 5763 5763 5762 5761 5760 5759 5758 5757 5756 5755 5753 5753 5752 5751 5750 5749 5748 5747 5747 5746 5746 5746 5746 5746 5746 5746 5747 5747 5748 5748 5749 5749 5749 5750 5751 5751 5751
5765 5765 5765 5765 5764 5764 5763 5762 5762 5761 5760 5760 5759 5758 5758 5757 5756 5755 5754 5754 5753 5752 5751 5751 5750 5750 5749 5749 5749 5749 5749 5749 5749 5750 5750 5750 5751 5751 5752 5752 5753 5753 5753 5754
5762 5762 5762 5762 5762 5762 5761 5761 5760 5760 5759 5758 5758 5758 5757 5757 5756 5756 5755 5754 5754 5753 5753 5752 5752 5752 5751 5751 5751 5751 5751 5751 5751 5752 5752 5752 5753 5753 5754 5754 5754 5754 5755 5755